Home > Weather > Niš > Past weeks

Flag for Serbia Past Weather in Niš, Serbia — Yesterday and Last 2 Weeks

Now
72 °F

Sunny.


Feels Like: 76 °F
Forecast: 55 / 81 °F
Wind: 6 mph from Northwest

Location: Nis Airport

Current Time: May 27, 2016 at 8:25:40 PM

Latest Report: May 27, 2016 at 8:00 PM


Visibility: 10 mi

Pressure: 30.04 "Hg

Humidity: 57%

Dew Point: 55 °F

Location of NišLocation

Past Weather in Niš — Graph

°F

Niš Temperature Yesterday

Maximum temperature yesterday: 73 °F (at 2:30 PM)
Minimum temperature yesterday: 46 °F (at 3:00 AM)
Average temperature yesterday: 62 °F

High & Low Weather Summary for the Past Weeks

 TemperatureHumidityPressure
High81 °F (May 23, 2:00 PM)100% (May 12, 7:00 PM)30.12 "Hg (May 12, 7:00 PM)
Low39 °F (May 18, 3:30 AM)24% (May 19, 3:30 PM)29.53 "Hg (May 12, 11:00 PM)
Average60 °F72%29.91 "Hg
* Reported May 12 7:00 PM — May 27 7:00 PM, Niš, Weather by CustomWeather, © 2016

Note: Actual official high and low records may vary slightly from our data, if they occured in-between our weather recording intervals... More about our weather records

Advertising

Niš Weather History for the Previous 24 Hours

Scroll right to see more
 ConditionsComfort  
Time TempWeatherWind HumidityBarometerVisibility
7:00 PM
Fri, May 27
75 °FPassing clouds.3 mph54%30.01 "HgN/A
6:30 PM77 °FPassing clouds.6 mph47%30.01 "HgN/A
6:00 PM77 °FPassing clouds.8 mph44%30.01 "HgN/A
5:30 PM77 °FPassing clouds.9 mph42%30.04 "HgN/A
5:00 PM79 °FPassing clouds.9 mph42%30.04 "HgN/A
4:30 PM79 °FPassing clouds.12 mph42%30.04 "HgN/A
4:00 PM79 °FPassing clouds.12 mph42%30.04 "HgN/A
3:30 PM79 °FPassing clouds.9 mph42%30.04 "HgN/A
3:00 PM79 °FPassing clouds.10 mph42%30.04 "HgN/A
2:30 PM79 °FPassing clouds.12 mph42%30.04 "HgN/A
2:00 PM77 °FPassing clouds.13 mph51%30.04 "HgN/A
1:30 PM77 °FPassing clouds.15 mph47%30.04 "HgN/A
1:00 PM75 °FPassing clouds.17 mph54%30.04 "HgN/A
12:30 PM75 °FPassing clouds.16 mph54%30.07 "HgN/A
12:00 PM75 °FPassing clouds.14 mph57%30.07 "HgN/A
11:30 AM73 °FPassing clouds.9 mph65%30.07 "HgN/A
11:00 AM73 °FPassing clouds.9 mph65%30.07 "HgN/A
10:30 AM72 °FPassing clouds.5 mph69%30.07 "HgN/A
10:00 AM70 °FPassing clouds.2 mph73%30.07 "HgN/A
9:30 AM66 °FPassing clouds.1 mph73%30.07 "HgN/A
9:00 AM64 °FPassing clouds.3 mph78%30.07 "HgN/A
8:30 AM63 °FSunny.2 mph88%30.07 "Hg10 mi
8:00 AM61 °FSunny.1 mph88%30.07 "Hg10 mi
7:30 AM59 °FSunny.1 mph88%30.07 "Hg10 mi
7:00 AM57 °FSunny.2 mph94%30.07 "Hg10 mi
6:30 AM54 °FSunny.1 mph100%30.07 "Hg10 mi
6:00 AM52 °FSunny.No wind100%30.04 "Hg10 mi
5:30 AM52 °FFog.2 mph100%30.04 "Hg5 mi
5:00 AM50 °FClear.1 mph100%30.04 "Hg10 mi
4:30 AM52 °FClear.2 mph100%30.04 "Hg10 mi
4:00 AM52 °FClear.2 mph100%30.01 "Hg10 mi
3:30 AM54 °FClear.2 mph94%30.01 "Hg10 mi
3:00 AM54 °FPassing clouds.3 mph100%30.01 "HgN/A
2:30 AM54 °FClear.2 mph100%30.01 "Hg10 mi
2:00 AM55 °FClear.2 mph94%30.01 "Hg10 mi
1:30 AM54 °FClear.2 mph100%30.01 "Hg10 mi
1:00 AM55 °FClear.No wind100%30.01 "Hg10 mi
12:30 AM57 °FClear.2 mph94%30.01 "Hg10 mi
12:00 AM57 °FClear.2 mph94%30.01 "Hg10 mi
11:30 PM
Thu, May 26
57 °FPassing clouds.3 mph88%30.01 "HgN/A
11:00 PM61 °FClear.6 mph83%30.01 "Hg10 mi
10:30 PM61 °FClear.2 mph83%30.01 "Hg10 mi
10:00 PM63 °FPassing clouds.5 mph77%29.98 "HgN/A
9:30 PM63 °FClear.8 mph77%29.98 "Hg10 mi
9:00 PM64 °FSunny.7 mph73%29.98 "Hg10 mi
8:30 PM64 °FSunny.8 mph78%29.98 "Hg10 mi
8:00 PM66 °FPassing clouds.9 mph73%29.98 "HgN/A
Weather by CustomWeather, © 2016

See weather overviewHow to use our weather pages